Flag for Canada Weather past 2 weeks in Kelowna, British Columbia, Canada

Now
59 °F

Sunny.


Feels Like: 59 °F
Forecast: 49 / 82 °F
Wind: 2 mph from North

Location: Kelowna Airport

Current Time: Sep 16, 2014 at 8:40:46 PM

Latest Report: Sep 16, 2014 at 8:00 PM


Visibility: 9 mi

Pressure: 29.80 "Hg

Humidity: 68%

Dew point: 48 °F

Location of KelownaLocation

Historic Weather in Kelowna — Graph

°F

Kelowna temperature yesterday

Maximum temperature yesterday: 81 °F (at 5:00 PM)
Minimum temperature yesterday: 39 °F (at 7:00 AM)
Average temperature yesterday: 58 °F

Past Weeks' High & Low Weather Summary

 TemperatureHumidityPressure
High86 °F (Sep 7, 4:00 PM)94% (Sep 2, 8:50 PM)30.55 "Hg (Sep 2, 8:50 PM)
Low30 °F (Sep 11, 6:00 AM)21% (Sep 15, 5:00 PM)29.67 "Hg (Sep 7, 6:00 PM)
Average58 °F59%30.05 "Hg
* Reported Sep 1 7:00 PM — Sep 16 7:00 PM, Kelowna, Weather by CustomWeather, © 2014

Note: Actual official high and low records may vary slightly from our data, if they occured in-between our weather recording intervals... More about our weather records

Advertising

Kelowna weather history for previous 24 hours

 ConditionsComfort  
Time TempWeatherWind HumidityBarometerVisibility
7:00 PM
Sep 16
68 °FSunny.No wind53%29.79 "Hg9 mi
6:00 PM75 °FSunny.7 mph39%29.78 "Hg9 mi
5:00 PM81 °FSunny.3 mph24%29.78 "Hg9 mi
4:00 PM81 °FSunny.10 mph24%29.80 "Hg9 mi
3:00 PM79 °FSunny.8 mph26%29.81 "Hg9 mi
2:00 PM77 °FSunny.6 mph28%29.84 "Hg9 mi
1:00 PM75 °FSunny.5 mph34%29.87 "Hg7 mi
12:00 PM72 °FSunny.3 mph36%29.90 "Hg9 mi
11:00 AM66 °FSunny.2 mph40%29.92 "Hg9 mi
10:00 AM63 °FSunny.3 mph52%29.94 "Hg9 mi
9:00 AM55 °FSunny.No wind59%29.95 "Hg9 mi
8:00 AM48 °FSunny.2 mph76%29.96 "Hg9 mi
7:00 AM41 °FClear.2 mph87%29.96 "Hg9 mi
6:00 AM43 °FClear.2 mph81%29.94 "Hg9 mi
5:00 AM41 °FClear.2 mph87%29.94 "Hg9 mi
4:00 AM41 °FClear.No wind87%29.94 "Hg9 mi
3:00 AM45 °FClear.No wind81%29.94 "Hg9 mi
2:00 AM46 °FClear.3 mph76%29.94 "Hg9 mi
1:00 AM46 °FClear.No wind76%29.93 "Hg9 mi
12:00 AM48 °FClear.2 mph71%29.92 "Hg9 mi
11:00 PM
Sep 15
50 °FClear.2 mph76%29.91 "Hg9 mi
10:00 PM54 °FClear.No wind67%29.90 "Hg8 mi
9:00 PM54 °FClear.2 mph72%29.89 "Hg9 mi
8:00 PM57 °FSunny.2 mph67%29.89 "Hg9 mi
Weather by CustomWeather, © 2014

See weather overviewHow to use our weather pages